CPA829 CYYZ-VHHH

Flight info

Callsign CPA829
Flight time N/A
Altitude 33000
Route SEDOG6 BOBSU DCT SMARE DCT YVO DCT 50N077W 55N076W 60N077W 65N079W 70N083W 75N090W/N0495F340 80N110W 82N130W DCT LAHEY DCT PELER/K0911F340 DCT 8130N17700E 80N164E 78N153E 76N145E DCT RUTIN M177 REBNO/K0926F360 M177 BALOM T479 PANAR G913 ARTUN N615 BIGMA/K0893F380 N615 SULOK/K0891S1100 Y327 VENID/K0891S1160 Y327 POLHO G218 TMR/K0893S1130 B458 DADGA/K0904S1160 W37 GUSIV/K0902S1190 W37 PEXID/K0907S1160 W37 OMBEB/K0900S1190 R473 NNX/K0909S1160 R473 WYN W18 NLG W23 ZUH R473 SIERA
Aircraft A35K/H-SDE2E3GHIJ3J4J5LM1ORWXY/LB1D1

Departure

Time 2026-05-04 02:30
Airport Toronto Pearson International Airport (CYYZ)

Arrival

Time N/A
Airport Hong Kong International Airport (VHHH)
Time Latitude Longitude Altitude Speed Heading
2026-05-04 01:58 43.68209 -79.62084 576 ft 0 kts 69°
2026-05-04 02:04 43.68208 -79.62084 567 ft 0 kts 69°
2026-05-04 02:11 43.68208 -79.62085 567 ft 0 kts 69°
2026-05-04 02:19 43.68207 -79.62088 567 ft 2 kts 69°
2026-05-04 02:19 43.68201 -79.62112 571 ft 3 kts 69°
2026-05-04 02:19 43.68194 -79.62136 568 ft 2 kts 69°
2026-05-04 02:19 43.68189 -79.62156 570 ft 3 kts 93°
2026-05-04 02:20 43.68192 -79.62177 569 ft 3 kts 116°
2026-05-04 02:20 43.68201 -79.62201 569 ft 3 kts 120°
2026-05-04 02:20 43.68211 -79.62225 576 ft 3 kts 121°
2026-05-04 02:20 43.68222 -79.62248 574 ft 3 kts 128°
2026-05-04 02:21 43.68235 -79.62269 576 ft 3 kts 136°
2026-05-04 02:21 43.68249 -79.62288 576 ft 3 kts 136°
2026-05-04 02:21 43.68264 -79.62307 573 ft 3 kts 136°
2026-05-04 02:21 43.68279 -79.62326 575 ft 3 kts 136°
2026-05-04 02:22 43.68291 -79.62343 567 ft 1 kts 136°
2026-05-04 02:22 43.68293 -79.62345 567 ft 0 kts 136°
2026-05-04 02:25 43.68279 -79.62344 570 ft 2 kts 194°
2026-05-04 02:25 43.68274 -79.62352 573 ft 2 kts 226°
2026-05-04 02:25 43.68262 -79.62410 571 ft 7 kts 267°
2026-05-04 02:25 43.68284 -79.62485 571 ft 13 kts 306°
2026-05-04 02:26 43.68345 -79.62576 573 ft 12 kts 314°
2026-05-04 02:26 43.68405 -79.62657 571 ft 12 kts 318°
2026-05-04 02:26 43.68465 -79.62733 576 ft 12 kts 318°
2026-05-04 02:26 43.68529 -79.62815 575 ft 18 kts 316°
2026-05-04 02:27 43.68663 -79.62990 572 ft 35 kts 316°
2026-05-04 02:27 43.68841 -79.63222 573 ft 34 kts 317°
2026-05-04 02:27 43.69008 -79.63438 573 ft 32 kts 317°
2026-05-04 02:27 43.69066 -79.63508 576 ft 0 kts 330°
2026-05-04 02:28 43.69111 -79.63511 577 ft 9 kts 15°
2026-05-04 02:28 43.69158 -79.63467 574 ft 9 kts 37°
2026-05-04 02:28 43.69301 -79.63409 576 ft 27 kts 18°
2026-05-04 02:28 43.69462 -79.63345 573 ft 22 kts 325°
2026-05-04 02:29 43.69459 -79.63456 574 ft 10 kts 226°
2026-05-04 02:29 43.69344 -79.63614 571 ft 46 kts 226°
2026-05-04 02:29 43.69015 -79.64090 578 ft 90 kts 226°
2026-05-04 02:29 43.68490 -79.64854 576 ft 129 kts 225°
2026-05-04 02:30 43.67793 -79.65868 584 ft 161 kts 227°
2026-05-04 02:30 43.67066 -79.66927 1028 ft 148 kts 226°
2026-05-04 02:30 43.66401 -79.68017 1230 ft 148 kts 240°
2026-05-04 02:30 43.65841 -79.69189 1549 ft 144 kts 236°
2026-05-04 02:31 43.65267 -79.70321 1798 ft 146 kts 237°
2026-05-04 02:31 43.64671 -79.71493 1900 ft 154 kts 236°
2026-05-04 02:31 43.64046 -79.72723 2033 ft 160 kts 236°
2026-05-04 02:31 43.63543 -79.74101 2219 ft 165 kts 252°
2026-05-04 02:32 43.63460 -79.75723 2307 ft 179 kts 276°
2026-05-04 02:32 43.64084 -79.77297 2367 ft 204 kts 309°
2026-05-04 02:32 43.65477 -79.78072 2385 ft 237 kts 349°
2026-05-04 02:32 43.67169 -79.78153 2408 ft 245 kts 341°
2026-05-04 02:33 43.68868 -79.78571 2548 ft 255 kts 342°
2026-05-04 02:33 43.70655 -79.78889 2962 ft 263 kts 347°
2026-05-04 02:33 43.72484 -79.79028 3518 ft 266 kts 351°
2026-05-04 02:33 43.74360 -79.78935 3973 ft 276 kts